| time (UTC) | temp F | wind direction | speed knots | gust knots | rain 1hr in | rain 24hr in | rain mn in | humidity % | barometer mb |
| 20260505221431 | 50 | 344 | 13.0 | 14.8 | 0.00 | 0.61 | 0.61 | 77 | 1009.3 |
| 20260505220928 | 50 | 14 | 7.8 | 9.6 | 0.00 | 0.61 | 0.61 | 76 | 1009.4 |
| 20260505220425 | 50 | 44 | 13.9 | 16.5 | 0.00 | 0.61 | 0.61 | 76 | 1009.0 |
| 20260505215922 | 50 | 50 | 7.0 | 7.8 | 0.00 | 0.61 | 0.61 | 76 | 1009.3 |
| 20260505215420 | 50 | 25 | 13.0 | 18.2 | 0.00 | 0.61 | 0.61 | 76 | 1009.4 |
| 20260505214918 | 51 | 47 | 8.7 | 12.2 | 0.00 | 0.61 | 0.61 | 77 | 1009.3 |
| 20260505214415 | 51 | 12 | 9.6 | 11.3 | 0.00 | 0.61 | 0.61 | 77 | 1009.4 |
| 20260505213912 | 51 | 3 | 7.8 | 8.7 | 0.00 | 0.61 | 0.61 | 76 | 1009.2 |
| 20260505213410 | 51 | 62 | 7.8 | 9.6 | 0.00 | 0.61 | 0.61 | 76 | 1008.8 |
| 20260505212906 | 51 | 33 | 14.8 | 25.2 | 0.00 | 0.61 | 0.61 | 75 | 1009.2 |
| 20260505212403 | 51 | 9 | 8.7 | 12.2 | 0.00 | 0.61 | 0.61 | 77 | 1009.1 |
| 20260505211859 | 51 | 11 | 7.8 | 8.7 | 0.00 | 0.61 | 0.61 | 77 | 1009.2 |
| 20260505211357 | 51 | 356 | 6.1 | 7.8 | 0.00 | 0.61 | 0.61 | 77 | 1009.3 |
| 20260505210853 | 51 | 22 | 10.4 | 14.8 | 0.00 | 0.61 | 0.61 | 77 | 1009.3 |
| 20260505210350 | 51 | 28 | 13.0 | 16.5 | 0.00 | 0.61 | 0.61 | 77 | 1009.3 |
| 20260505205847 | 51 | 43 | 13.0 | 14.8 | 0.00 | 0.61 | 0.61 | 77 | 1009.0 |
| 20260505205345 | 51 | 17 | 13.0 | 16.5 | 0.00 | 0.61 | 0.61 | 76 | 1009.3 |
| 20260505204842 | 51 | 24 | 9.6 | 9.6 | 0.00 | 0.61 | 0.61 | 78 | 1009.5 |
| 20260505204340 | 51 | 9 | 11.3 | 13.9 | 0.00 | 0.61 | 0.61 | 78 | 1009.3 |
| 20260505203837 | 51 | 22 | 11.3 | 13.0 | 0.00 | 0.61 | 0.61 | 76 | 1009.2 |
| 20260505203333 | 51 | 43 | 11.3 | 15.6 | 0.00 | 0.61 | 0.61 | 77 | 1009.2 |
| 20260505202830 | 52 | 15 | 8.7 | 9.6 | 0.00 | 0.61 | 0.61 | 77 | 1009.0 |
| 20260505202326 | 52 | 18 | 9.6 | 14.8 | 0.00 | 0.61 | 0.61 | 73 | 1009.2 |
| 20260505201823 | 52 | 47 | 9.6 | 12.2 | 0.00 | 0.61 | 0.61 | 72 | 1009.2 |
| 20260505201320 | 53 | 1 | 7.8 | 9.6 | 0.00 | 0.61 | 0.61 | 72 | 1009.2 |
| 20260505200818 | 53 | 47 | 3.5 | 3.5 | 0.00 | 0.61 | 0.61 | 74 | 1008.9 |
| 20260505200315 | 53 | 32 | 13.9 | 16.5 | 0.00 | 0.61 | 0.61 | 73 | 1009.1 |
| 20260505195810 | 53 | 34 | 8.7 | 13.0 | 0.00 | 0.61 | 0.61 | 74 | 1009.2 |
| 20260505195308 | 53 | 33 | 10.4 | 12.2 | 0.00 | 0.61 | 0.61 | 73 | 1009.0 |
| 20260505194805 | 53 | 12 | 13.9 | 16.5 | 0.00 | 0.61 | 0.61 | 73 | 1008.9 |
| 20260505194302 | 53 | 69 | 9.6 | 11.3 | 0.00 | 0.61 | 0.61 | 74 | 1009.1 |
| 20260505193757 | 53 | 26 | 7.8 | 9.6 | 0.00 | 0.61 | 0.61 | 74 | 1009.0 |
| 20260505193255 | 53 | 31 | 13.0 | 13.9 | 0.00 | 0.61 | 0.61 | 73 | 1009.0 |
| 20260505192753 | 53 | 24 | 9.6 | 12.2 | 0.00 | 0.61 | 0.61 | 74 | 1008.9 |
| 20260505192250 | 53 | 308 | 8.7 | 14.8 | 0.00 | 0.61 | 0.61 | 74 | 1009.2 |
| 20260505191748 | 53 | 50 | 12.2 | 14.8 | 0.00 | 0.61 | 0.61 | 75 | 1008.9 |
| 20260505191247 | 53 | 33 | 6.1 | 9.6 | 0.00 | 0.61 | 0.61 | 75 | 1008.5 |
| 20260505190742 | 53 | 33 | 7.8 | 8.7 | 0.00 | 0.61 | 0.61 | 75 | 1008.9 |
| 20260505190237 | 53 | 13 | 12.2 | 14.8 | 0.00 | 0.61 | 0.61 | 75 | 1009.0 |
| 20260505185734 | 53 | 20 | 4.3 | 5.2 | 0.00 | 0.61 | 0.61 | 78 | 1008.7 |
| 20260505185231 | 53 | 67 | 7.8 | 9.6 | 0.00 | 0.61 | 0.61 | 77 | 1008.4 |
| 20260505184727 | 53 | 57 | 5.2 | 6.1 | 0.00 | 0.61 | 0.61 | 78 | 1008.6 |
| 20260505184225 | 52 | 38 | 10.4 | 14.8 | 0.00 | 0.61 | 0.61 | 78 | 1008.4 |
| 20260505183721 | 52 | 36 | 13.9 | 20.0 | 0.00 | 0.61 | 0.61 | 79 | 1008.6 |
| 20260505183219 | 52 | 11 | 13.9 | 18.2 | 0.00 | 0.61 | 0.61 | 80 | 1008.6 |
| 20260505182714 | 53 | 64 | 14.8 | 20.9 | 0.00 | 0.61 | 0.61 | 81 | 1008.7 |
| 20260505182212 | 52 | 40 | 7.8 | 12.2 | 0.00 | 0.61 | 0.61 | 81 | 1008.7 |
| 20260505181708 | 53 | 38 | 15.6 | 20.9 | 0.00 | 0.61 | 0.61 | 82 | 1008.6 |
| 20260505181206 | 53 | 3 | 7.8 | 13.0 | 0.00 | 0.61 | 0.61 | 83 | 1008.5 |
| 20260505180702 | 53 | 355 | 10.4 | 12.2 | 0.00 | 0.61 | 0.61 | 84 | 1008.7 |
| 20260505180159 | 53 | 53 | 13.0 | 14.8 | 0.00 | 0.61 | 0.61 | 83 | 1008.6 |
| 20260505175654 | 53 | 30 | 12.2 | 16.5 | 0.00 | 0.61 | 0.61 | 82 | 1008.6 |
| 20260505175151 | 53 | 27 | 8.7 | 9.6 | 0.00 | 0.61 | 0.61 | 83 | 1008.5 |
| 20260505174648 | 53 | 26 | 6.1 | 7.8 | 0.00 | 0.61 | 0.61 | 83 | 1008.6 |
| 20260505174144 | 53 | 21 | 7.8 | 9.6 | 0.00 | 0.61 | 0.61 | 83 | 1008.5 |
| 20260505173641 | 53 | 47 | 5.2 | 8.7 | 0.00 | 0.61 | 0.61 | 82 | 1008.4 |
| 20260505173138 | 53 | 41 | 8.7 | 11.3 | 0.00 | 0.61 | 0.61 | 82 | 1008.2 |
| 20260505172635 | 53 | 55 | 10.4 | 13.9 | 0.00 | 0.61 | 0.61 | 83 | 1008.1 |
| 20260505172132 | 53 | 35 | 16.5 | 20.0 | 0.00 | 0.61 | 0.61 | 83 | 1008.0 |
| 20260505171631 | 53 | 24 | 9.6 | 13.0 | 0.00 | 0.61 | 0.61 | 83 | 1007.8 |
| 20260505171129 | 53 | 33 | 8.7 | 9.6 | 0.00 | 0.61 | 0.61 | 84 | 1007.7 |
| 20260505170626 | 53 | 63 | 8.7 | 9.6 | 0.00 | 0.61 | 0.61 | 83 | 1007.9 |
| 20260505170122 | 53 | 33 | 7.8 | 11.3 | 0.00 | 0.61 | 0.61 | 83 | 1007.8 |
| 20260505165617 | 53 | 45 | 16.5 | 21.7 | 0.00 | 0.61 | 0.61 | 82 | 1007.9 |
| 20260505165114 | 53 | 88 | 13.0 | 16.5 | 0.00 | 0.61 | 0.61 | 82 | 1008.0 |
| 20260505164609 | 54 | 332 | 12.2 | 16.5 | 0.00 | 0.61 | 0.61 | 83 | 1007.7 |
| 20260505164108 | 54 | 65 | 9.6 | 13.0 | 0.00 | 0.61 | 0.61 | 84 | 1007.8 |
| 20260505163606 | 54 | 31 | 8.7 | 11.3 | 0.00 | 0.61 | 0.61 | 84 | 1007.8 |
| 20260505163102 | 54 | 24 | 14.8 | 16.5 | 0.00 | 0.61 | 0.61 | 83 | 1007.9 |
| 20260505162600 | 54 | 24 | 7.0 | 7.8 | 0.00 | 0.61 | 0.61 | 84 | 1008.1 |
| 20260505162058 | 54 | 28 | 12.2 | 18.2 | 0.00 | 0.61 | 0.61 | 84 | 1007.9 |
| 20260505161554 | 54 | 66 | 12.2 | 18.2 | 0.00 | 0.61 | 0.61 | 84 | 1008.0 |
| 20260505161052 | 55 | 3 | 14.8 | 15.6 | 0.00 | 0.61 | 0.61 | 85 | 1007.7 |
| 20260505160550 | 54 | 49 | 4.3 | 6.1 | 0.00 | 0.61 | 0.61 | 86 | 1007.7 |
| 20260505153026 | 53 | 1 | 7.0 | 7.8 | 0.00 | 0.61 | 0.61 | 89 | 1007.5 |
| 20260505152523 | 53 | 52 | 13.0 | 14.8 | 0.00 | 0.61 | 0.61 | 89 | 1007.7 |
| 20260505152019 | 53 | 66 | 11.3 | 15.6 | 0.00 | 0.61 | 0.61 | 89 | 1007.5 |
| 20260505151514 | 53 | 36 | 13.0 | 18.2 | 0.00 | 0.61 | 0.61 | 90 | 1007.6 |
| 20260505151012 | 53 | 60 | 10.4 | 13.0 | 0.00 | 0.61 | 0.61 | 90 | 1007.6 |
| 20260505150508 | 53 | 27 | 9.6 | 11.3 | 0.00 | 0.61 | 0.61 | 91 | 1008.1 |
| 20260505140433 | 55 | 27 | 7.8 | 9.6 | 0.00 | 0.61 | 0.61 | 93 | 1006.2 |
| 20260505124846 | 56 | 7 | 7.0 | 11.3 | 0.00 | 0.61 | 0.61 | 94 | 1006.4 |
| 20260505124343 | 56 | 35 | 9.6 | 12.2 | 0.00 | 0.61 | 0.61 | 94 | 1006.1 |
| 20260505123839 | 57 | 36 | 8.7 | 9.6 | 0.00 | 0.61 | 0.61 | 94 | 1006.1 |
| 20260505123335 | 57 | 16 | 6.1 | 7.0 | 0.00 | 0.61 | 0.61 | 94 | 1005.9 |
| 20260505122832 | 57 | 64 | 7.0 | 7.0 | 0.00 | 0.61 | 0.61 | 94 | 1005.7 |
| 20260505122329 | 57 | 50 | 3.5 | 5.2 | 0.00 | 0.61 | 0.61 | 94 | 1005.8 |
| 20260505121826 | 57 | 28 | 7.8 | 8.7 | 0.00 | 0.61 | 0.61 | 94 | 1005.9 |
| 20260505121323 | 57 | 6 | 7.0 | 7.8 | 0.00 | 0.61 | 0.61 | 94 | 1005.7 |
| 20260505120819 | 58 | 16 | 6.1 | 8.7 | 0.00 | 0.61 | 0.61 | 93 | 1005.5 |
| 20260505120315 | 58 | 17 | 8.7 | 11.3 | 0.00 | 0.61 | 0.61 | 93 | 1005.5 |
| 20260505115813 | 58 | 49 | 6.1 | 7.0 | 0.00 | 0.61 | 0.61 | 93 | 1005.0 |
| 20260505115311 | 59 | 24 | 3.5 | 6.1 | 0.00 | 0.61 | 0.61 | 93 | 1005.1 |
| 20260505114809 | 59 | 359 | 4.3 | 6.1 | 0.00 | 0.61 | 0.61 | 94 | 1005.1 |
| 20260505114305 | 60 | 28 | 3.5 | 3.5 | 0.00 | 0.61 | 0.61 | 94 | 1004.8 |
| 20260505113756 | 60 | 27 | 3.5 | 5.2 | 0.00 | 0.61 | 0.61 | 94 | 1004.8 |
| 20260505113253 | 59 | 91 | 4.3 | 7.0 | 0.00 | 0.61 | 0.61 | 97 | 1004.7 |
| 20260505112748 | 60 | 39 | 6.1 | 7.8 | 0.00 | 0.61 | 0.61 | 98 | 1005.0 |
| 20260505112247 | 60 | 36 | 6.1 | 7.8 | 0.00 | 0.61 | 0.61 | 99 | 1004.7 |
| 20260505111746 | 60 | 20 | 7.0 | 8.7 | 0.00 | 0.61 | 0.61 | 99 | 1004.7 |
| 20260505111242 | 60 | 359 | 2.6 | 3.5 | 0.00 | 0.61 | 0.61 | 99 | 1004.4 |
| 20260505110738 | 60 | 53 | 4.3 | 5.2 | 0.00 | 0.61 | 0.61 | 99 | 1004.4 |
| 20260505110236 | 60 | 330 | 5.2 | 6.1 | 0.00 | 0.61 | 0.61 | 99 | 1004.4 |
| 20260505102212 | 61 | 24 | 3.5 | 3.5 | 0.00 | 0.61 | 0.61 | 99 | 1004.7 |
| 20260505101711 | 61 | 134 | 0.9 | 1.7 | 0.00 | 0.61 | 0.61 | 99 | 1004.7 |
| 20260505101206 | 61 | 25 | 1.7 | 2.6 | 0.00 | 0.61 | 0.61 | 99 | 1004.5 |
| 20260505100702 | 61 | 114 | 0.9 | 1.7 | 0.00 | 0.61 | 0.61 | 99 | 1004.7 |
| 20260505100159 | 61 | 61 | 3.5 | 3.5 | 0.00 | 0.61 | 0.61 | 99 | 1004.6 |
| 20260505095655 | 61 | 5 | 3.5 | 3.5 | 0.00 | 0.61 | 0.61 | 99 | 1004.7 |
| 20260505095153 | 61 | 351 | 1.7 | 2.6 | 0.00 | 0.61 | 0.61 | 98 | 1004.6 |
| 20260505094649 | 61 | 24 | 5.2 | 7.0 | 0.07 | 0.61 | 0.61 | 98 | 1004.9 |
| 20260505094145 | 60 | 147 | 1.7 | 2.6 | 0.24 | 0.61 | 0.61 | 98 | 1004.5 |
| 20260505093642 | 60 | 161 | 1.7 | 2.6 | 0.52 | 0.60 | 0.60 | 98 | 1004.2 |
| 20260505093139 | 61 | 145 | 8.7 | 8.7 | 0.40 | 0.58 | 0.58 | 98 | 1004.0 |
| 20260505092636 | 61 | 160 | 3.5 | 5.2 | 0.07 | 0.51 | 0.51 | 96 | 1003.9 |
| 20260505092135 | 61 | 164 | 6.1 | 7.8 | 0.14 | 0.51 | 0.51 | 96 | 1003.8 |
| 20260505091631 | 62 | 158 | 7.8 | 8.7 | 0.07 | 0.50 | 0.50 | 97 | 1003.7 |
| 20260505091129 | 62 | 169 | 3.5 | 6.1 | 0.00 | 0.49 | 0.49 | 97 | 1004.1 |
| 20260505090626 | 62 | 163 | 3.5 | 3.5 | 0.12 | 0.49 | 0.49 | 98 | 1003.6 |
| 20260505090124 | 61 | 173 | 6.1 | 7.0 | 0.28 | 0.49 | 0.49 | 98 | 1003.5 |
| 20260505085621 | 61 | 166 | 4.3 | 6.1 | 0.17 | 0.47 | 0.47 | 98 | 1004.0 |
| 20260505085120 | 61 | 193 | 5.2 | 7.8 | 0.19 | 0.44 | 0.44 | 98 | 1003.7 |
| 20260505084617 | 61 | 202 | 3.5 | 6.1 | 0.35 | 0.44 | 0.44 | 98 | 1003.6 |
| 20260505084115 | 61 | 151 | 3.5 | 6.1 | 0.38 | 0.42 | 0.42 | 98 | 1003.6 |
| 20260505083613 | 61 | 184 | 0.9 | 1.7 | 0.19 | 0.39 | 0.39 | 98 | 1004.4 |
| 20260505083109 | 61 | 214 | 1.7 | 2.6 | 0.00 | 0.36 | 0.36 | 98 | 1004.6 |
| 20260505082605 | 61 | 209 | 1.7 | 1.7 | 0.00 | 0.36 | 0.36 | 98 | 1004.5 |
| 20260505082102 | 61 | 183 | 2.6 | 3.5 | 0.24 | 0.36 | 0.36 | 98 | 1004.3 |
| 20260505081558 | 61 | 163 | 3.5 | 5.2 | 0.24 | 0.36 | 0.36 | 98 | 1004.1 |
| 20260505081055 | 61 | 169 | 9.6 | 11.3 | 0.05 | 0.32 | 0.32 | 97 | 1003.7 |
| 20260505080551 | 62 | 185 | 7.0 | 8.7 | 0.05 | 0.32 | 0.32 | 97 | 1003.4 |
| 20260505080049 | 61 | 205 | 7.0 | 7.8 | 0.00 | 0.31 | 0.31 | 98 | 1003.5 |
| 20260505075544 | 61 | 166 | 5.2 | 8.7 | 0.07 | 0.31 | 0.31 | 98 | 1003.3 |
| 20260505075041 | 61 | 216 | 5.2 | 7.0 | 0.07 | 0.31 | 0.31 | 98 | 1003.2 |
| 20260505074538 | 61 | 158 | 7.0 | 7.8 | 0.00 | 0.30 | 0.30 | 99 | 1003.1 |
| 20260505074036 | 61 | 191 | 8.7 | 9.6 | 0.00 | 0.30 | 0.30 | 99 | 1003.6 |
| 20260505073533 | 61 | 151 | 5.2 | 6.1 | 0.00 | 0.30 | 0.30 | 99 | 1003.7 |
| 20260505073032 | 61 | 134 | 13.0 | 15.6 | 0.00 | 0.30 | 0.30 | 99 | 1003.8 |
| 20260505072526 | 61 | 172 | 7.8 | 12.2 | 0.00 | 0.30 | 0.30 | 99 | 1004.1 |
| 20260505072023 | 62 | 140 | 12.2 | 14.8 | 0.00 | 0.30 | 0.30 | 99 | 1004.2 |
| 20260505071518 | 62 | 115 | 5.2 | 7.0 | 0.00 | 0.30 | 0.30 | 99 | 1004.6 |
| 20260505071017 | 62 | 189 | 7.0 | 7.8 | 0.05 | 0.30 | 0.30 | 99 | 1005.4 |
| 20260505070514 | 62 | 167 | 6.1 | 7.0 | 0.05 | 0.30 | 0.30 | 99 | 1005.0 |
| 20260505070010 | 62 | 200 | 3.5 | 3.5 | 0.07 | 0.29 | 0.29 | 99 | 1005.4 |
| 20260505065506 | 62 | 136 | 2.6 | 3.5 | 0.12 | 0.29 | 0.29 | 99 | 1006.1 |
| 20260505065002 | 62 | 168 | 7.8 | 8.7 | 0.12 | 0.28 | 0.28 | 98 | 1006.1 |
| 20260505064459 | 62 | 173 | 2.6 | 3.5 | 0.12 | 0.27 | 0.27 | 98 | 1006.7 |
| 20260505063958 | 62 | 200 | 0.9 | 0.9 | 0.12 | 0.26 | 0.26 | 98 | 1006.9 |
| 20260505063454 | 62 | 177 | 1.7 | 1.7 | 0.14 | 0.25 | 0.25 | 98 | 1006.7 |
| 20260505062950 | 62 | 188 | 1.7 | 1.7 | 0.24 | 0.24 | 0.24 | 97 | 1006.7 |
| 20260505062448 | 62 | 196 | 3.5 | 3.5 | 0.40 | 0.23 | 0.23 | 97 | 1007.2 |
| 20260505061944 | 62 | 205 | 0.9 | 1.7 | 0.42 | 0.20 | 0.20 | 96 | 1007.2 |
| 20260505061443 | 63 | 202 | 2.6 | 5.2 | 0.35 | 0.17 | 0.17 | 95 | 1007.3 |
| 20260505060940 | 63 | 218 | 5.2 | 7.8 | 0.38 | 0.14 | 0.14 | 94 | 1007.2 |
| 20260505060437 | 63 | 266 | 1.7 | 2.6 | 0.28 | 0.10 | 0.10 | 93 | 1006.4 |
| 20260505055933 | 63 | 214 | 1.7 | 2.6 | 0.24 | 0.08 | 0.08 | 92 | 1006.5 |
| 20260505055429 | 64 | 231 | 2.6 | 3.5 | 0.24 | 0.06 | 0.06 | 91 | 1006.2 |
| 20260505054926 | 65 | 226 | 5.2 | 6.1 | 0.17 | 0.04 | 0.04 | 87 | 1005.7 |
| 20260505054423 | 65 | 257 | 4.3 | 6.1 | 0.12 | 0.02 | 0.02 | 85 | 1005.5 |
| 20260505053921 | 66 | 194 | 0.9 | 1.7 | 0.07 | 0.01 | 0.01 | 82 | 1005.4 |
| 20260505053418 | 67 | 236 | 1.7 | 2.6 | 0.00 | 0.00 | 0.00 | 78 | 1005.2 |
| 20260505052915 | 68 | 212 | 2.6 | 2.6 | 0.00 | 0.00 | 0.00 | 75 | 1004.8 |
| 20260505052412 | 69 | 176 | 1.7 | 1.7 | 0.00 | 0.00 | 0.00 | 74 | 1004.3 |
| 20260505051909 | 69 | 177 | 5.2 | 5.2 | 0.00 | 0.00 | 0.00 | 73 | 1004.3 |
| 20260505051406 | 69 | 217 | 3.5 | 3.5 | 0.00 | 0.00 | 0.00 | 71 | 1004.4 |
| 20260505050904 | 69 | 187 | 2.6 | 3.5 | 0.00 | 0.00 | 0.00 | 71 | 1004.4 |
| 20260505050402 | 69 | 155 | 6.1 | 7.8 | 0.00 | 0.00 | 0.00 | 70 | 1004.3 |
| 20260505041330 | 69 | 175 | 5.2 | 7.0 | 0.00 | 0.00 | 0.00 | 70 | 1004.6 |
| 20260505040827 | 69 | 166 | 3.5 | 3.5 | 0.00 | 0.00 | 0.00 | 69 | 1004.3 |
| 20260505040324 | 69 | 174 | 4.3 | 5.2 | 0.00 | 0.00 | 0.00 | 69 | 1004.2 |
| 20260505035821 | 69 | 186 | 5.2 | 6.1 | 0.00 | 0.00 | 0.00 | 69 | 1004.3 |
| 20260505035317 | 70 | 226 | 7.8 | 8.7 | 0.00 | 0.00 | 0.00 | 68 | 1004.3 |
| 20260505034814 | 70 | 187 | 2.6 | 3.5 | 0.00 | 0.00 | 0.00 | 68 | 1004.5 |
| 20260505034311 | 70 | 164 | 6.1 | 7.8 | 0.00 | 0.00 | 0.00 | 68 | 1004.7 |
| 20260505033808 | 70 | 160 | 3.5 | 5.2 | 0.00 | 0.00 | 0.00 | 68 | 1004.8 |
| 20260505033305 | 70 | 161 | 4.3 | 6.1 | 0.00 | 0.00 | 0.00 | 68 | 1005.0 |
| 20260505032803 | 70 | 159 | 5.2 | 7.0 | 0.00 | 0.00 | 0.00 | 68 | 1004.8 |
| 20260505032259 | 70 | 159 | 6.1 | 7.0 | 0.00 | 0.00 | 0.00 | 68 | 1004.6 |
| 20260505031757 | 70 | 207 | 5.2 | 6.1 | 0.00 | 0.00 | 0.00 | 67 | 1005.0 |
| 20260505031253 | 71 | 181 | 6.1 | 7.8 | 0.00 | 0.00 | 0.00 | 67 | 1004.7 |
| 20260505030750 | 70 | 143 | 4.3 | 6.1 | 0.00 | 0.00 | 0.00 | 67 | 1004.8 |
| 20260505030246 | 71 | 165 | 7.0 | 8.7 | 0.00 | 0.00 | 0.00 | 66 | 1004.6 |
| 20260505025741 | 71 | 176 | 5.2 | 7.0 | 0.00 | 0.00 | 0.00 | 66 | 1004.9 |
| 20260505025240 | 71 | 163 | 7.8 | 7.8 | 0.00 | 0.00 | 0.00 | 66 | 1004.9 |
| 20260505024738 | 71 | 161 | 6.1 | 7.0 | 0.00 | 0.00 | 0.00 | 66 | 1004.8 |
| 20260505024235 | 71 | 194 | 7.0 | 9.6 | 0.00 | 0.00 | 0.00 | 66 | 1004.8 |
| 20260505023732 | 71 | 187 | 7.0 | 7.0 | 0.00 | 0.00 | 0.00 | 66 | 1004.4 |
| 20260505023229 | 71 | 167 | 8.7 | 11.3 | 0.00 | 0.00 | 0.00 | 66 | 1004.6 |
| 20260505022726 | 71 | 193 | 7.8 | 8.7 | 0.00 | 0.00 | 0.00 | 65 | 1004.6 |
| 20260505022223 | 71 | 166 | 9.6 | 9.6 | 0.00 | 0.00 | 0.00 | 65 | 1004.5 |
| 20260505021720 | 71 | 176 | 7.8 | 8.7 | 0.00 | 0.00 | 0.00 | 66 | 1004.5 |
| 20260505021217 | 71 | 171 | 3.5 | 5.2 | 0.00 | 0.00 | 0.00 | 66 | 1004.4 |
| 20260505020712 | 71 | 178 | 4.3 | 5.2 | 0.00 | 0.00 | 0.00 | 65 | 1004.6 |
| 20260505020208 | 72 | 171 | 4.3 | 5.2 | 0.00 | 0.00 | 0.00 | 65 | 1004.2 |
| 20260505015706 | 72 | 191 | 5.2 | 6.1 | 0.00 | 0.00 | 0.00 | 64 | 1004.2 |
| 20260505015202 | 72 | 181 | 6.1 | 8.7 | 0.00 | 0.00 | 0.00 | 64 | 1004.3 |
| 20260505014659 | 72 | 165 | 5.2 | 7.8 | 0.00 | 0.00 | 0.00 | 64 | 1004.1 |
| 20260505014156 | 73 | 159 | 5.2 | 7.8 | 0.00 | 0.00 | 0.00 | 63 | 1004.2 |
| 20260505013654 | 73 | 170 | 4.3 | 6.1 | 0.00 | 0.00 | 0.00 | 63 | 1004.1 |
| 20260505013151 | 73 | 192 | 5.2 | 6.1 | 0.00 | 0.00 | 0.00 | 63 | 1004.1 |
| 20260505012649 | 73 | 194 | 2.6 | 5.2 | 0.00 | 0.00 | 0.00 | 63 | 1004.1 |
| 20260505012146 | 73 | 139 | 7.0 | 8.7 | 0.00 | 0.00 | 0.00 | 63 | 1004.3 |
| 20260505011641 | 73 | 162 | 1.7 | 2.6 | 0.00 | 0.00 | 0.00 | 63 | 1004.2 |
| 20260505011139 | 73 | 195 | 2.6 | 3.5 | 0.00 | 0.00 | 0.00 | 63 | 1003.9 |
| 20260505010639 | 73 | 210 | 5.2 | 6.1 | 0.00 | 0.00 | 0.00 | 63 | 1004.1 |
| 20260505010136 | 73 | 210 | 4.3 | 7.8 | 0.00 | 0.00 | 0.00 | 63 | 1004.2 |
| 20260505005632 | 73 | 179 | 7.0 | 7.8 | 0.00 | 0.00 | 0.00 | 63 | 1004.2 |
| 20260505005129 | 73 | 193 | 3.5 | 5.2 | 0.00 | 0.00 | 0.00 | 63 | 1004.3 |
| 20260505004627 | 74 | 180 | 3.5 | 5.2 | 0.00 | 0.00 | 0.00 | 62 | 1004.2 |
| 20260505004123 | 74 | 218 | 4.3 | 5.2 | 0.00 | 0.00 | 0.00 | 62 | 1004.2 |
| 20260505003620 | 74 | 185 | 1.7 | 2.6 | 0.00 | 0.00 | 0.00 | 62 | 1004.2 |
| 20260505003118 | 74 | 222 | 4.3 | 5.2 | 0.00 | 0.00 | 0.00 | 61 | 1004.3 |
| 20260505002614 | 74 | 215 | 3.5 | 5.2 | 0.00 | 0.00 | 0.00 | 61 | 1004.1 |
| 20260505002107 | 75 | 189 | 4.3 | 5.2 | 0.00 | 0.00 | 0.00 | 60 | 1004.2 |
| 20260505001603 | 75 | 190 | 7.0 | 8.7 | 0.00 | 0.00 | 0.00 | 58 | 1004.1 |
| 20260505001100 | 75 | 215 | 7.0 | 7.8 | 0.00 | 0.00 | 0.00 | 58 | 1004.3 |
| 20260505000552 | 75 | 221 | 7.0 | 7.8 | 0.00 | 0.00 | 0.00 | 58 | 1004.2 |
| 20260505000050 | 75 | 231 | 7.0 | 12.2 | 0.00 | 0.00 | 0.00 | 58 | 1004.1 |
| 20260504235546 | 76 | 176 | 7.8 | 9.6 | 0.00 | 0.00 | 0.00 | 58 | 1003.9 |
| 20260504235043 | 76 | 224 | 5.2 | 7.0 | 0.00 | 0.00 | 0.00 | 59 | 1004.0 |
| 20260504234540 | 76 | 204 | 8.7 | 13.0 | 0.00 | 0.00 | 0.00 | 58 | 1003.9 |
| 20260504234037 | 77 | 226 | 7.8 | 9.6 | 0.00 | 0.00 | 0.00 | 57 | 1003.7 |
| 20260504233532 | 77 | 235 | 5.2 | 6.1 | 0.00 | 0.00 | 0.00 | 57 | 1003.8 |
| 20260504233029 | 77 | 195 | 9.6 | 13.0 | 0.00 | 0.00 | 0.00 | 55 | 1003.9 |
| 20260504232526 | 77 | 194 | 9.6 | 12.2 | 0.00 | 0.00 | 0.00 | 55 | 1004.1 |
| 20260504232024 | 77 | 209 | 9.6 | 13.0 | 0.00 | 0.00 | 0.00 | 55 | 1003.9 |
| 20260504231521 | 77 | 197 | 5.2 | 7.0 | 0.00 | 0.00 | 0.00 | 56 | 1003.8 |
| 20260504231017 | 77 | 241 | 5.2 | 6.1 | 0.00 | 0.00 | 0.00 | 55 | 1004.0 |
| 20260504230513 | 77 | 200 | 7.0 | 8.7 | 0.00 | 0.00 | 0.00 | 55 | 1004.0 |
| 20260504230012 | 78 | 237 | 6.1 | 7.0 | 0.00 | 0.00 | 0.00 | 55 | 1003.9 |
| 20260504225509 | 78 | 221 | 10.4 | 13.9 | 0.00 | 0.00 | 0.00 | 55 | 1003.9 |
| 20260504225006 | 78 | 243 | 11.3 | 13.0 | 0.00 | 0.00 | 0.00 | 54 | 1003.8 |
| 20260504224503 | 79 | 195 | 5.2 | 8.7 | 0.00 | 0.00 | 0.00 | 55 | 1003.6 |
| 20260504224000 | 79 | 182 | 6.1 | 7.8 | 0.00 | 0.00 | 0.00 | 54 | 1003.6 |
| 20260504223456 | 79 | 153 | 5.2 | 7.0 | 0.00 | 0.00 | 0.00 | 55 | 1003.6 |
| 20260504222951 | 80 | 186 | 7.0 | 9.6 | 0.00 | 0.00 | 0.00 | 54 | 1003.4 |
| 20260504222449 | 80 | 177 | 3.5 | 7.0 | 0.00 | 0.00 | 0.00 | 54 | 1003.4 |
| 20260504221947 | 80 | 232 | 7.8 | 8.7 | 0.00 | 0.00 | 0.00 | 53 | 1003.4 |